This is the latest recevied weather packets stored in our database for station/object AE5TC. If no packets are shown the sender has not sent any weather packets the latest 10 day(s).
| Time | Temp. | Humidity | Pressure | Rain* | Wind** | Luminosity | Snow |
|---|---|---|---|---|---|---|---|
| 1777815924 | 18.33° C | 61% | 1019.1 hPa | 0 mm | - | 392 W/m² | - |
| 1777815621 | 18.33° C | 63% | 1019.1 hPa | 0 mm | - | 376 W/m² | - |
| 1777815318 | 17.78° C | 64% | 1019 hPa | 0 mm | - | 359 W/m² | - |
| 1777815015 | 17.22° C | 64% | 1019 hPa | 0 mm | - | 344 W/m² | - |
| 1777814711 | 17.22° C | 66% | 1019.1 hPa | 0 mm | - | 326 W/m² | - |
| 1777814408 | 17.22° C | 66% | 1018.9 hPa | 0 mm | - | 310 W/m² | - |
| 1777814105 | 17.22° C | 67% | 1019.1 hPa | 0 mm | - | 292 W/m² | - |
| 1777813801 | 17.22° C | 67% | 1019 hPa | 0 mm | - | 275 W/m² | - |
| 1777813499 | 17.22° C | 69% | 1018.9 hPa | 0 mm | - | 261 W/m² | - |
| 1777813196 | 16.67° C | 69% | 1019 hPa | 0 mm | - | 245 W/m² | - |
| 1777812894 | 16.11° C | 70% | 1019.1 hPa | 0 mm | - | 229 W/m² | - |
| 1777812590 | 15.56° C | 70% | 1019.3 hPa | 0 mm | - | 213 W/m² | - |
| 1777812288 | 15.56° C | 72% | 1019 hPa | 0 mm | - | 196 W/m² | - |
| 1777811986 | 15° C | 72% | 1018.9 hPa | 0 mm | - | 180 W/m² | - |
| 1777811684 | 15° C | 73% | 1019.1 hPa | 0 mm | - | 165 W/m² | - |
| 1777811380 | 15° C | 74% | 1018.7 hPa | 0 mm | - | 149 W/m² | - |
| 1777811077 | 14.44° C | 75% | 1018.9 hPa | 0 mm | - | 135 W/m² | - |
| 1777810774 | 13.89° C | 77% | 1018.8 hPa | 0 mm | - | 121 W/m² | - |
| 1777810471 | 13.89° C | 77% | 1019.1 hPa | 0 mm | - | 107 W/m² | - |
| 1777810167 | 13.89° C | 77% | 1018.8 hPa | 0 mm | - | 94 W/m² | - |
| 1777809864 | 13.33° C | 81% | 1018.7 hPa | 0 mm | - | 82 W/m² | - |
| 1777809562 | 13.33° C | 82% | 1018.7 hPa | 0 mm | - | 71 W/m² | - |
| 1777809260 | 13.33° C | 81% | 1018.7 hPa | 0 mm | - | 61 W/m² | - |
| 1777808957 | 12.78° C | 80% | 1018.6 hPa | 0 mm | - | 52 W/m² | - |
| 1777808654 | 12.22° C | 80% | 1018.4 hPa | 0 mm | - | 44 W/m² | - |
* Rain latest hour (hover to see other rain measurements)
** Current wind speed in m/s (hover to see current wind gust speed)